CDT,Max TemperatureF,Mean TemperatureF,Min TemperatureF,Max Dew PointF,MeanDew PointF,Min DewpointF,Max Humidity, Mean Humidity, Min Humidity, Max Sea Level PressureIn, Mean Sea Level PressureIn, Min Sea Level PressureIn, Max VisibilityMiles, Mean VisibilityMiles, Min VisibilityMiles, Max Wind SpeedMPH, Mean Wind SpeedMPH, Max Gust SpeedMPH,PrecipitationIn, CloudCover, Events, WindDirDegrees
2013-10-1,90,74,58,64,58,54,92,61,34,29.87,29.82,29.78,10,10,10,21,11,28,0.00,0,,128
2013-10-2,88,77,66,70,66,60,99,71,48,29.94,29.86,29.77,10,10,10,21,12,28,0.00,2,,145
2013-10-3,91,80,68,71,67,64,100,73,41,29.85,29.77,29.66,10,10,10,26,14,34,0.00,1,,152
2013-10-4,90,76,60,67,65,55,88,66,44,29.90,29.77,29.68,10,9,2,33,17,43,0.43,4,Rain-Thunderstorm,138
2013-10-5,69,60,51,57,40,33,94,51,26,30.16,30.05,29.91,10,10,5,28,19,38,0.03,4,Rain-Thunderstorm,2
2013-10-6,79,64,48,46,38,29,75,50,18,30.18,30.11,30.05,10,7,2,23,6,26,0.00,0,,303
2013-10-7,80,63,46,50,44,38,90,71,23,30.18,30.13,30.06,10,5,2,9,3,,0.00,0,,358
2013-10-8,84,66,47,45,42,40,78,47,22,30.08,29.99,29.91,10,10,10,17,9,22,0.00,0,,130
2013-10-9,83,66,50,50,47,45,86,51,28,30.01,29.94,29.89,10,10,10,22,12,29,0.00,0,,139
2013-10-10,84,70,56,60,57,51,89,60,40,29.97,29.88,29.79,10,10,10,29,14,38,0.00,0,,136
2013-10-11,89,74,57,63,47,32,100,50,14,29.86,29.82,29.76,10,10,10,20,11,29,0.00,0,,184
2013-10-12,77,65,53,50,46,39,72,53,36,30.16,30.03,29.87,10,10,9,29,12,34,0.00,0,,35
2013-10-13,73,66,59,68,59,48,100,80,67,30.27,30.17,30.12,10,10,10,18,12,23,0.00,6,,73
2013-10-14,77,72,66,72,68,66,100,93,78,30.11,29.98,29.85,10,9,5,15,11,,0.00,7,Rain,147
2013-10-15,68,60,52,68,47,37,100,67,42,30.15,30.03,29.89,10,10,7,24,13,32,0.00,5,Rain,9
2013-10-16,57,48,39,41,37,35,87,60,45,30.21,30.15,30.10,10,9,5,16,10,20,0.00,6,Rain,7
2013-10-17,73,54,36,46,38,34,93,73,27,30.11,30.05,29.94,10,8,4,8,3,,0.00,1,,205
2013-10-18,56,49,41,56,49,37,100,93,67,30.23,30.00,29.91,10,7,2,26,11,36,0.24,7,Rain-Thunderstorm,59
2013-10-19,68,51,34,41,36,30,98,64,25,30.25,30.13,30.03,10,10,10,10,7,18,0.00,0,,237
2013-10-20,74,56,37,52,45,37,99,70,39,30.02,29.88,29.76,10,10,10,18,7,23,0.00,0,,134
2013-10-21,65,54,43,50,41,35,88,61,33,30.16,30.04,29.84,10,10,10,30,14,38,0.00,2,,29
2013-10-22,82,59,37,42,38,36,93,61,20,30.16,30.12,30.01,10,6,2,15,6,22,0.00,0,,281
2013-10-23,86,64,43,45,39,31,93,51,14,30.11,30.05,29.96,10,10,1,16,6,23,0.00,0,,279
2013-10-24,66,56,45,49,42,38,92,63,36,30.35,30.23,30.06,10,10,10,26,12,34,0.00,0,,42
2013-10-25,67,52,38,49,42,34,88,65,46,30.43,30.31,30.17,10,10,10,14,9,16,0.00,2,Rain,115
2013-10-26,76,64,52,61,54,44,100,79,39,30.18,30.12,30.02,10,10,7,21,9,29,0.01,6,Rain-Thunderstorm,106
2013-10-27,72,57,42,52,38,29,91,62,22,30.16,30.10,29.96,10,8,3,13,7,,0.00,0,,314
2013-10-28,70,60,50,66,57,50,100,97,78,30.05,29.99,29.90,10,5,0,22,8,29,0.00,6,Fog,124
2013-10-29,82,74,66,68,66,64,100,82,55,29.98,29.93,29.85,10,10,10,23,17,29,0.00,5,,152
2013-10-30,81,71,62,70,67,63,100,87,55,29.95,29.82,29.69,10,9,0,23,13,67,0.91,7,Fog-Rain-Thunderstorm,169
2013-10-31,70,60,47,64,48,36,100,68,30,29.83,29.75,29.64,10,10,7,32,14,40,0.11,2,Rain,252